Regional Weather Roundup
Issued by NWS

Home | Current Version | Previous Version | Graphics & Text | Print | Product List | Glossary On
Versions: 1 2 3 4 5 6 7 8 9 10 11 12 13 14 15 16 17 18 19 20 21 22 23 24 25 26 27 28 29 30 31 32 33 34 35 36 37 38 39 40 41 42 43 44 45 46 47 48 49 50
000
ASUS43 KDTX 290110
RWRMI
MICHIGAN HOURLY REGIONAL WEATHER ROUNDUP
NATIONAL WEATHER SERVICE DETROIT/PONTIAC MI
900 PM EDT WED JUN 28 2017

NOTE: "FAIR" INDICATES FEW OR NO CLOUDS BELOW 12,000 FEET WITH NO
SIGNIFICANT WEATHER AND/OR OBSTRUCTION TO VISIBILITY.

MIZ047>049-052>055-059>063-066>070-074>076-081>083-290200-
SOUTHEAST LOWER MICHIGAN

CITY           SKY/WX    TMP DP  RH WIND       PRES   REMARKS
ADRIAN         CLOUDY    75  52  44 SW12      29.94F
ALMA           RAIN      63  59  86 S3        29.90F
ANN ARBOR      CLOUDY    68  57  68 CALM      29.93F
BAD AXE        DRIZZLE   63  56  78 SE8       29.94F
CARO           LGT RAIN  64  60  84 CALM      29.93S
DETROIT CITY   CLOUDY    73  52  47 S7        29.95F
DETROIT        CLOUDY    72  54  53 S8        29.95F
FLINT          LGT RAIN  70  53  54 S12G20    29.91F
GROSSE ILE     CLOUDY    70  64  80 S5        29.95F
HILLSDALE      CLOUDY    72  50  46 S6        29.92F
HOWELL         LGT RAIN  68  52  57 SE8       29.91F

CITY           SKY/WX    TMP DP  RH WIND       PRES   REMARKS
JACKSON        CLOUDY    69  54  58 SE9       29.90F
LAMBERTVILLE   CLOUDY    74  51  43 S9        29.94F
LANSING        LGT RAIN  70  52  52 SE10      29.88F
LAPEER         CLOUDY    65  56  72 SE3       29.95S
MASON          PTCLDY    67  55  64 SE8       29.89F
MONROE         CLOUDY    73  52  47 S7        29.94F
MT. CLEMENS    CLOUDY    69  58  69 SE8       29.95F
PONTIAC        CLOUDY    71  52  50 S7        29.94F
PORT HOPE        N/A     63  57  81 SE6       29.92F
PORT HURON     DRIZZLE   66  54  63 S5        29.96F
TRI CITIES     LGT RAIN  67  59  75 S10G23    29.92R
MIDLAND        LGT RAIN  66  57  71 S8        29.90F
TROY           LGT RAIN  74  48  40 S5        29.96F
SAGINAW HB     RAIN      68  54  60 S7        29.93R
$$
MIZ043>046-050>051-056>058-064>065-071>073-077>080-290200-
SOUTHWEST LOWER MICHIGAN

CITY           SKY/WX    TMP DP  RH WIND       PRES   REMARKS
BATTLE CREEK   PTCLDY    73  51  46 S15       29.86F
BENTON HARBOR  CLOUDY    77  55  46 S14G24    29.82R
BIG RAPIDS     RAIN      62  58  88 S12G20    29.83F
COLDWATER      CLOUDY    73  49  43 S9G16     29.89F
FREMONT        RAIN      63  61  92 E7        29.82F
HOLLAND        MOCLDY    67  60  78 SE8       29.80F
GRAND RAPIDS   CLOUDY    66  61  84 E8        29.84F
IONIA          CLOUDY    66  56  70 E7        29.86F
KALAMAZOO      CLOUDY    74  51  44 S12       29.85F
LUDINGTON      CLOUDY    64  62  93 S9        29.77S
MARSHALL       PTCLDY    72  53  50 S8        29.87F
MOUNT PLEASANT HVY RAIN  63  58  83 S6        29.88F
MUSKEGON       TSTM      66  62  87 E7        29.81S
SOUTH HAVEN    MOCLDY    76  57  51 S10G17    29.81R
$$
MIZ016>042-290200-
NORTHERN LOWER MICHIGAN

CITY           SKY/WX    TMP DP  RH WIND       PRES   REMARKS
ALPENA         LGT RAIN  62  62 100 SE7       29.88F
BEAVER ISLAND  HVY RAIN  61  61 100 S8        29.77F
BELLAIRE       CLOUDY    64  59  86 S5        29.79F
CADILLAC       LGT RAIN  62  59  92 S10G16    29.82R
CHARLEVOIX     LGT RAIN  62  62 100 SE8       29.80F
FRANKFORT      MOCLDY    66  59  80 S9G23     29.75F
GAYLORD        CLOUDY    62  57  83 S14       29.83F
GRAYLING       CLOUDY    62  59  88 S6        29.85S
HARBOR SPRINGS RAIN      62  62 100 NE5       29.80F
HOUGHTON LAKE  CLOUDY    64  58  80 S13G21    29.85F
MANISTEE       CLOUDY    64  61  90 S12G17    29.76R
OSCODA         LGT RAIN  64  58  83 S10G16    29.89F
PELLSTON       LGT RAIN  62  59  90 S8        29.81F FOG
ROGERS CITY    RAIN      62  59  92 S10       29.86F
TRAVERSE CITY  CLOUDY    67  59  75 VRB7      29.77R
$$
MIZ007>008-015-290200-
EASTERN UPPER MICHIGAN

CITY           SKY/WX    TMP DP  RH WIND       PRES   REMARKS
KINROSS        CLOUDY    61  60  97 SE12      29.82F
MACKINAC ISLAN RAIN      61  61 100 S8        29.81F
NEWBERRY       CLOUDY    59  58  97 S8        29.78S FOG
S. S. MARIE    LGT RAIN  62  60  93 SE7       29.82F FOG
MUNISING         N/A     61  60  97 S9        29.71S
$$
MIZ004>006-011>014-085-290200-
CENTRAL UPPER MICHIGAN

CITY           SKY/WX    TMP DP  RH WIND       PRES   REMARKS
MANISTIQUE     RAIN      58  55  89 S7        29.75F
ESCANABA       LGT RAIN  62  60  93 S12G21    29.70F
MENOMINEE      MOCLDY    62  60  93 SE6       29.66F FOG
SAWYER-GWINN   RAIN      59  57  94 S14       29.71S VSB 1
$$
MIZ001>003-009>011-084-290200-
WESTERN UPPER MICHIGAN

CITY           SKY/WX    TMP DP  RH WIND       PRES   REMARKS
IRON MOUNTAIN  LGT RAIN  62  60  93 SE6       29.65F FOG
HOUGHTON       LGT RAIN  61  58  90 E8        29.64S FOG
COPPER HARBOR    N/A     61  57  87 VRB7      29.66S
IRONWOOD       CLOUDY    65  62  90 S12       29.56F
$$

ABBREVIATIONS USED IN REMARKS
   TC - TEMPERATURE IN CELSIUS
  WCI - WIND CHILL INDEX
   HX - HEAT INDEX
  VSB - VISIBILITY





USA.gov is the U.S. government's official web portal to all federal, state and local government web resources and services.